Weather History for TNCB - November, 2012

Change the Weather History Date:

Friday, November 30, 2012

  Actual Average Record
Temperature  
Mean Temperature 82 °F -  
Max Temperature 86 °F 85 °F 89 °F (1998)
Min Temperature 77 °F 77 °F 42 °F (1999)
Cooling Degree Days 16    
Growing Degree Days 32 (Base 50)    
Moisture  
Dew Point 74 °F    
Average Humidity 81    
Maximum Humidity 94    
Minimum Humidity 58    
Precipitation  
Precipitation 0.12 in - - ()
Sea Level Pressure  
Sea Level Pressure 29.90 in    
Wind  
Wind Speed 6 mph ()    
Max Wind Speed 15 mph    
Max Gust Speed -    
Visibility 6.2 miles    
Events      
Averages and records for this station are not official NWS values.
T = Trace of Precipitation, MM = Missing Value Source: Averaged Metar Reports

Daily Weather History Graph

Daily Weather History Graph

Search for Another Location

Airport or City:

Trip Planner

Search our weather history database for the weather conditions in past years. The results will help you decide how hot, cold, wet, or windy it might be!

Date:

Astronomy

Nov. 30, 2012 Rise Set
Actual Time 6:37 AM AST 6:06 PM AST
Civil Twilight 6:15 AM AST 6:28 PM AST
Nautical Twilight 5:48 AM AST 6:54 PM AST
Astronomical Twilight 5:22 AM AST 7:21 PM AST
Moon 7:55 PM AST 8:08 AM AST
Length of Visible Light 12h 13m
Length of Day
11h 28m
Waning Gibbous, 96% of the Moon is Illuminated
Nov 30
Waning Gibbous
Dec 6
Last Quarter
Dec 13
New
Dec 20
First Quarter
Dec 28
Full

Hourly Weather History & Observations

Time (AST) Temp. Heat Index Dew Point Humidity Pressure Visibility Wind Dir Wind Speed Gust Speed Precip Events Conditions
1:00 AM 77.0 °F - 75.2 °F 94% 29.92 in - North - - N/A   Unknown
2:00 AM 77 °F - 76 °F 94%  in - East 1.2 mph - -   Clear
2:00 AM 77.0 °F - 75.2 °F 94% 29.89 in - North - - N/A   Unknown
3:00 AM 77.0 °F - 73.4 °F 89% 29.89 in - North - - N/A   Unknown
5:00 AM 77.0 °F - 73.4 °F 89% 29.89 in - North - - N/A   Unknown
6:00 AM 77.0 °F - 73.4 °F 89% 29.89 in - North - - N/A   Unknown
7:00 AM 78.8 °F - 73.4 °F 83% 29.92 in - ENE 4.6 mph - N/A   Unknown
9:00 AM 84.2 °F 92.3 °F 75.2 °F 74% 29.95 in 6.2 mi East 9.2 mph - N/A   Scattered Clouds
10:00 AM 82.4 °F 90.9 °F 77.0 °F 84% 29.98 in - NE 6.9 mph - N/A   Unknown
11:00 AM 81 °F - 78 °F 88%  in 6 mi NE 4.6 mph - -   Clear
11:00 AM 80.6 °F 87.1 °F 77.0 °F 89% 29.95 in - NE 4.6 mph - N/A   Unknown
12:00 PM 84.2 °F 92.3 °F 75.2 °F 74% 29.95 in 6.2 mi East 15.0 mph - N/A   Scattered Clouds
1:00 PM 86.0 °F 93.4 °F 73.4 °F 66% 29.92 in 6.2 mi ENE 13.8 mph - N/A   Scattered Clouds
2:00 PM 86.0 °F 95.1 °F 75.2 °F 70% 29.89 in - ENE 11.5 mph - N/A   Unknown
3:00 PM 86.0 °F 90.4 °F 69.8 °F 58% 29.86 in 6.2 mi East 10.4 mph - N/A   Partly Cloudy
5:00 PM 82.4 °F 88.2 °F 73.4 °F 74% 29.86 in 6.2 mi East 9.2 mph - N/A   Scattered Clouds
6:00 PM 82.4 °F 87.2 °F 71.6 °F 70% 29.86 in 6.2 mi East 5.8 mph - N/A   Partly Cloudy
7:00 PM 80.6 °F 85.4 °F 73.4 °F 79% 29.86 in - ENE 3.5 mph - N/A   Unknown
8:00 PM 78.8 °F - 73.4 °F 83% 29.89 in 6.2 mi ENE 5.8 mph - N/A   Partly Cloudy
9:00 PM 78.8 °F - 73.4 °F 83% 29.89 in - ENE 4.6 mph - N/A   Unknown
10:00 PM 78.8 °F - 73.4 °F 83% 29.89 in - NE 4.6 mph - N/A   Unknown
11:00 PM 78.8 °F - 73.4 °F 83% 29.92 in - North - - N/A   Unknown